Jonesboro, AR

12:08 AM CDT on May 25, 2017 (GMT -0500)
Jonesboro Municipal

Weather History for KJBR - October, 2013

Change the Weather History Date:

Tuesday, October 22, 2013

  Actual Average Record
Temperature  
Mean Temperature 54 °F 59 °F  
Max Temperature 66 °F 71 °F 94 °F (1900)
Min Temperature 41 °F 48 °F 26 °F (1917)
Degree Days  
Heating Degree Days 11 7  
Month to date heating degree days 75 97  
Since 1 July heating degree days 75 115  
Cooling Degree Days 0 1  
Month to date cooling degree days 66 44  
Year to date cooling degree days 2034 1815  
Growing Degree Days 10 (Base 50)    
Moisture  
Dew Point 42 °F    
Average Humidity 66    
Maximum Humidity 95    
Minimum Humidity 37    
Precipitation  
Precipitation 0.00 in 0.17 in 1.90 in (2009)
Month to date precipitation 3.73 3.07  
Year to date precipitation 42.46 37.24  
Snow  
Snow 0.00 in 0.00 in 0.00 in (2002)
Month to date snowfall 0.0 0.0  
Since 1 July snowfall 0.0 0.0  
Since 1 September snowfall 0.0 0.0  
Snow Depth 0.00 in    
Sea Level Pressure  
Sea Level Pressure 30.01 in    
Wind  
Wind Speed 5 mph (West)    
Max Wind Speed 13 mph    
Max Gust Speed 16 mph    
Visibility 10 miles    
Events      
T = Trace of Precipitation, MM = Missing Value Source: NWS Daily Summary

Daily Weather History Graph

Daily Weather History Graph

Search for Another Location

Airport or City:

Trip Planner

Search our weather history database for the weather conditions in past years. The results will help you decide how hot, cold, wet, or windy it might be!

Date:

Astronomy

Oct. 22, 2013 Rise Set
Actual Time 7:15 AM CDT 6:17 PM CDT
Civil Twilight 6:49 AM CDT 6:43 PM CDT
Nautical Twilight 6:19 AM CDT 7:13 PM CDT
Astronomical Twilight 5:50 AM CDT 7:43 PM CDT
Moon 9:03 PM CDT (10/22) 10:39 AM CDT (10/22)
Length of Visible Light 11h 54m
Length of Day
11h 02m
Waning Gibbous, 86% of the Moon is Illuminated
Oct 22
Waning Gibbous
Oct 26
Last Quarter
Nov 3
New
Nov 9
First Quarter
Nov 17
Full

Hourly Weather History & Observations

Time (CDT) Temp. Dew Point Humidity Pressure Visibility Wind Dir Wind Speed Gust Speed Precip Events Conditions
12:53 AM - - N/A% 30.07 in 10.0 mi NW 3.5 mph - 0.00 in   Overcast
1:53 AM - - N/A% 30.08 in 10.0 mi Calm Calm - N/A   Overcast
2:53 AM - - N/A% 30.08 in 10.0 mi North 4.6 mph - N/A   Overcast
3:53 AM - - N/A% 30.08 in 10.0 mi NNE 4.6 mph - N/A   Overcast
4:53 AM - - N/A% 30.07 in 10.0 mi NNE 3.5 mph - N/A   Mostly Cloudy
5:53 AM - - N/A% 30.08 in 10.0 mi Calm Calm - N/A   Clear
6:53 AM - - N/A% 30.07 in 10.0 mi Calm Calm - N/A   Clear
7:53 AM - - N/A% 30.08 in 10.0 mi Calm Calm - N/A   Clear
8:53 AM - - N/A% 30.09 in 10.0 mi East 4.6 mph - N/A   Clear
9:53 AM - - N/A% 30.09 in 10.0 mi East 5.8 mph - N/A   Clear
10:53 AM 55.0 °F 39.0 °F 55% 30.08 in 10.0 mi Calm Calm - N/A   Clear
11:53 AM 57.9 °F 37.0 °F 46% 30.05 in 10.0 mi Calm Calm - N/A   Clear
12:53 PM 62.1 °F 37.0 °F 39% 30.02 in 10.0 mi Variable 6.9 mph - N/A   Clear
1:53 PM 64.0 °F 37.0 °F 37% 29.97 in 10.0 mi WSW 11.5 mph - N/A   Clear
2:53 PM 64.9 °F 39.0 °F 39% 29.93 in 10.0 mi SW 11.5 mph 16.1 mph N/A   Clear
3:53 PM 66.0 °F 39.0 °F 37% 29.91 in 10.0 mi WSW 10.4 mph - N/A   Clear
4:53 PM 64.9 °F 39.9 °F 40% 29.89 in 10.0 mi SW 12.7 mph - N/A   Clear
5:53 PM 63.0 °F 42.1 °F 46% 29.90 in 10.0 mi WSW 8.1 mph - N/A   Clear
6:53 PM 57.0 °F 45.0 °F 64% 29.90 in 10.0 mi SSW 5.8 mph - N/A   Clear
7:53 PM 59.0 °F 46.0 °F 62% 29.91 in 10.0 mi SW 8.1 mph - N/A   Overcast
8:53 PM 57.0 °F 46.0 °F 67% 29.93 in 10.0 mi West 6.9 mph - N/A   Partly Cloudy
9:53 PM 57.0 °F 46.9 °F 69% 29.94 in 10.0 mi West 6.9 mph - N/A   Overcast
10:53 PM 55.9 °F 46.9 °F 72% 29.96 in 10.0 mi WNW 6.9 mph - N/A   Partly Cloudy
11:53 PM 54.0 °F 45.0 °F 72% 29.98 in 10.0 mi NW 6.9 mph - N/A   Partly Cloudy